ELECTRON KICK STAGE R/B, 65117

Orbit data source: Space-Track

ELECTRON KICK STAGE R/B, 65117 is space debris in LEO originally from a launch on Tue, 05 Aug 2025 UTC launched from the Rocket Lab Launch Complex (RLLC). Debris objects in space refer to the collection of defunct objects orbiting the Earth. Examples of debris include non-operational satellites, rocket bodies, and fragments generated from explosions, collisions, or faulty payload assembly.

Loading next visibility...
Identifier
65117, 2025-169B
Orbit
LEO
Country
Flag of USUS
Related business
Manufacturer
Rocket Lab
Mission
Spacecraft
Bus & Motor
KICK STAGE, CURIE
Mass
~42 kg wet, ~42 kg dry
Launch date (UTC)
2025-08-05 (10 months ago)
Launch vehicle
Unknown
Launch site
Rocket Lab Launch Complex (RLLC)
Object type
Payload
Rocket body
Debris
Shape & HBR
Trunc Cone, 0.7 m
Radar Cross Section
0.760 m², Medium (>0.1 m² and < 1m²)

Expand to show TLE details & history
Last TLE update: 21 hours ago

TLE from 21 hours ago
0 ELECTRON KICK STAGE R/B
1 65117U 25169B   26170.99534295  .00003814  00000-0  30496-3 0  9996
2 65117  42.0118 359.1649 0009105 233.8469 126.1515 15.01366623 47853
Epoch: 2026-06-19T23:53Z
TLE epoch observation values (Epoch: 2026-06-19T23:53:17.630Z)
Latitude
-0.00004°
Longitude
92.62507°
Altitude
566.082 km
Speed
7.578 km/s
True Right ascension
23h 56m 39s
True Declination
0° 00' 00"
Sunlit
Object was in daylight at epoch
Visualization orbit readout
Latitude
Unknown
Longitude
Unknown
Altitude
Unknown
Speed
Unknown
Apparent Right ascension
Unknown
Apparent Declination
Unknown
Sunlit
N/A
Visualization observer readout
Local Sidereal Time
07:22:58
Azimuth
Unknown
Elevation
Unknown
Doppler factor
Unknown
Orbital elements
Apogee altitude
571.089 km
Perigee altitude
558.446 km
Semi-major axis
6,942.905 km
Eccentricity
0.00091
Inclination
42.0118°
RAAN
359.1649°
Arg. of periapsis
233.8469°
True anomaly
126.23569°
Mean anomaly
126.1515°
Eccentric anomaly
126.1936°
Mean motion
3.75173 °/min
Orbital period
95.96 mins
BSTAR
0.00030496
Loading maneuver chart data...
Computing Atmospheric mass density...
Loading historical data...
Loading historical data...
Loading historical data...
Loading historical data...
Loading historical data...
Loading historical data...
Loading historical data...
Other satellites on launch #169 in the year 2025 (2025-08-05 UTC)

Documentation

Showing up to 5 results
|